Weather History for KVCB - September, 2014

Change the Weather History Date:

Wednesday, September 3, 2014

  Actual Average Record
Temperature  
Mean Temperature 73 °F -  
Max Temperature 91 °F 94 °F 112 °F (1950)
Min Temperature 55 °F 56 °F 47 °F (1960)
Cooling Degree Days 8    
Growing Degree Days 23 (Base 50)    
Moisture  
Dew Point 54 °F    
Average Humidity 56    
Maximum Humidity 89    
Minimum Humidity 28    
Precipitation  
Precipitation 0.00 in - - ()
Sea Level Pressure  
Sea Level Pressure 29.70 in    
Wind  
Wind Speed 6 mph (SW)    
Max Wind Speed 9 mph    
Max Gust Speed -    
Visibility 10 miles    
Events      
Averages and records for this station are not official NWS values.
T = Trace of Precipitation, MM = Missing Value Source: NWS Daily Summary

Daily Weather History Graph

Daily Weather History Graph

Search for Another Location

Airport or City:

Trip Planner

Search our weather history database for the weather conditions in past years. The results will help you decide how hot, cold, wet, or windy it might be!

Date:

Astronomy

Sep. 03, 2014 Rise Set
Actual Time 6:39 AM PDT 7:34 PM PDT
Civil Twilight 6:12 AM PDT 8:01 PM PDT
Nautical Twilight 5:40 AM PDT 8:33 PM PDT
Astronomical Twilight 5:06 AM PDT 9:06 PM PDT
Moon 3:19 PM PDT (9/3) 12:40 AM PDT (9/3)
Length of Visible Light 13h 49m
Length of Day
12h 55m
Waxing Gibbous, 65% of the Moon is Illuminated
Sep 3
Waxing Gibbous
Sep 8
Full
Sep 15
Last Quarter
Sep 23
New
Oct 1
First Quarter

Hourly Weather History & Observations

Time (PDT) Temp. Heat Index Dew Point Humidity Pressure Visibility Wind Dir Wind Speed Gust Speed Precip Events Conditions
12:53 AM 61.0 °F - 53.1 °F 75% 29.70 in 10.0 mi SW 9.2 mph - N/A   Clear
1:53 AM 59.0 °F - 53.1 °F 81% 29.71 in 10.0 mi WSW 6.9 mph - N/A   Clear
2:53 AM 57.9 °F - 53.1 °F 84% 29.72 in 10.0 mi West 5.8 mph - N/A   Clear
3:53 AM 57.0 °F - 53.1 °F 87% 29.72 in 10.0 mi West 5.8 mph - N/A   Clear
4:53 AM 55.9 °F - 52.0 °F 87% 29.73 in 10.0 mi WSW 4.6 mph - N/A   Clear
5:53 AM 55.9 °F - 52.0 °F 87% 29.74 in 10.0 mi WSW 5.8 mph - N/A   Clear
6:53 AM 55.0 °F - 52.0 °F 89% 29.76 in 10.0 mi SW 3.5 mph - N/A   Clear
7:53 AM 59.0 °F - 53.1 °F 81% 29.78 in 10.0 mi Calm Calm - N/A   Clear
8:53 AM 63.0 °F - 54.0 °F 72% 29.78 in 10.0 mi Calm Calm - N/A   Clear
9:53 AM 66.9 °F - 55.0 °F 66% 29.80 in 10.0 mi SW 3.5 mph - N/A   Clear
10:53 AM 73.9 °F - 54.0 °F 50% 29.79 in 10.0 mi Calm Calm - N/A   Clear
11:53 AM 80.1 °F 80.0 °F 54.0 °F 40% 29.77 in 10.0 mi Calm Calm - N/A   Clear
12:53 PM 82.9 °F 82.0 °F 55.0 °F 38% 29.74 in 10.0 mi SSE 5.8 mph - N/A   Clear
1:53 PM 86.0 °F 84.2 °F 54.0 °F 33% 29.72 in 10.0 mi Variable 3.5 mph - N/A   Clear
2:53 PM 88.0 °F 85.9 °F 54.0 °F 31% 29.69 in 10.0 mi South 6.9 mph - N/A   Clear
3:53 PM 88.0 °F 86.1 °F 55.0 °F 32% 29.66 in 10.0 mi SSW 5.8 mph - N/A   Clear
4:53 PM 91.0 °F 88.7 °F 54.0 °F 28% 29.65 in 10.0 mi SSW 6.9 mph - N/A   Clear
5:53 PM 90.0 °F 87.9 °F 55.0 °F 30% 29.64 in 10.0 mi SW 6.9 mph - N/A   Clear
6:53 PM 88.0 °F 85.9 °F 54.0 °F 31% 29.62 in 10.0 mi WSW 6.9 mph - N/A   Clear
7:53 PM 82.0 °F 81.4 °F 55.0 °F 39% 29.62 in 10.0 mi SW 5.8 mph - N/A   Clear
8:53 PM 80.1 °F 80.0 °F 54.0 °F 40% 29.63 in 10.0 mi SW 4.6 mph - N/A   Clear
9:53 PM 77.0 °F - 54.0 °F 45% 29.65 in 10.0 mi SW 4.6 mph - N/A   Clear
10:53 PM 71.1 °F - 52.0 °F 51% 29.64 in 10.0 mi SW 6.9 mph - N/A   Clear
11:53 PM 69.1 °F - 52.0 °F 54% 29.65 in 10.0 mi SW 6.9 mph - N/A   Clear